[[{"header":{"parameterUnit":"m.s-1","parameterCategory":1,"la1":30.2992,"la2":30.254,"lo1":-89.0895,"lo2":-89.0443,"dy":0.0025,"dx":0.0025,"nx":19,"ny":19,"refTime":"2026-05-15T03:00:00:Z","depth":0,"parameterNumber":2,"parameterNumberName":"U-component_of_WINDS"},"data":[0,0,0,-1.093,-1.0931,-1.0991,-1.0991,-1.107,-1.1071,0,0,0,0,0,0,0,0,0,0,0,-1.0912,-1.0913,-1.093,-1.0931,-1.0991,-1.0991,-1.107,-1.1071,0,0,0,0,0,0,0,0,0,0,0,-1.0912,-1.0913,-1.0913,-1.0931,-1.0991,-1.0991,-1.107,-1.1024,0,0,0,0,0,0,0,0,0,0,-1.0965,-1.095,-1.0913,-1.0913,-1.0932,-1.0991,-1.0991,-1.1022,-1.1027,-1.1044,0,-1.1058,0,-1.1066,-1.1076,-1.1076,0,0,0,-1.0931,-1.0945,-1.0961,-1.0913,-1.0932,-1.0991,-1.0964,-1.1025,-1.103,-1.105,-1.1059,-1.1062,-1.1067,-1.1077,-1.1077,-1.1172,-1.1173,0,0,-1.0928,-1.0923,-1.0957,-1.0965,-1.0955,-1.0962,-1.0966,-1.1028,-1.1037,-1.1059,-1.1064,-1.1068,-1.1077,-1.1078,-1.1172,-1.1173,0,0,0,-1.0918,-1.0921,-1.0935,-1.0962,-1.0972,-1.0964,-1.0968,-1.1035,-1.104,-1.1064,-1.1069,-1.1078,-1.1079,-1.1172,-1.1172,-1.119,0,0,0,-1.0916,-1.0916,-1.0934,-1.0932,-1.0971,-1.1004,-1.0973,-1.1035,-1.1042,-1.1069,-1.1078,-1.1079,-1.1171,-1.1172,-1.1189,-1.1199,0,0,0,-1.0908,-1.0915,-1.0923,-1.0932,-1.0957,-1.1003,-1.1012,-1.1037,-1.1045,-1.1077,-1.108,-1.1171,-1.1172,-1.1187,-1.1197,-1.1223,0,0,0,-1.0899,-1.0939,-1.0924,-1.097,-1.0957,-1.1013,-1.1011,-1.1054,-1.1083,-1.1078,-1.1171,-1.1172,-1.1187,-1.1196,-1.1222,-1.1244,-1.1253,0,0,-1.0947,-1.0944,-1.0972,-1.096,-1.1018,-1.1005,-1.1066,-1.1097,-1.1104,-1.115,-1.1152,-1.1189,-1.1197,-1.1223,-1.1306,-1.1313,0,0,0,-1.0986,-1.1005,-1.1022,-1.1049,-1.1073,-1.1095,-1.1117,-1.1129,-1.1167,-1.1126,-1.1206,-1.1211,-1.1226,-1.1237,-1.1243,-1.1257,-1.1177,-1.1177,-1.1177,-1.1047,-1.1054,-1.1101,-1.1115,-1.1141,-1.1164,-1.1186,-1.1206,-1.1205,-1.1224,-1.1237,-1.1287,-1.1299,-1.1304,-1.1318,-1.125,-1.125,-1.125,-1.125,-1.1118,-1.1147,-1.1146,-1.119,-1.1198,-1.1236,-1.1259,-1.1258,-1.1295,-1.1277,-1.1291,-1.1271,-1.1312,-1.1324,-1.1252,-1.1251,-1.1251,-1.1251,-1.1251,-1.1159,-1.1174,-1.1188,-1.1228,-1.1259,-1.1272,-1.1308,-1.1313,-1.1319,-1.1333,-1.1348,-1.1348,-1.1348,-1.134,-1.134,-1.134,-1.134,-1.134,-1.1341,-1.1197,-1.1211,-1.124,-1.1269,-1.1288,-1.1313,-1.1336,-1.1355,-1.1378,-1.1379,-1.1379,-1.1377,-1.1314,-1.1298,-1.1343,-1.1343,-1.1342,-1.1342,-1.1342,-1.1266,-1.1251,-1.1295,-1.1314,-1.135,-1.138,-1.1387,-1.1425,-1.1441,-1.1459,-1.1454,-1.1407,-1.1405,-1.14,-1.1387,-1.1452,-1.1452,-1.1452,-1.1452,-1.1301,-1.13,-1.1347,-1.1376,-1.1406,-1.1417,-1.1468,-1.1487,-1.1505,-1.1516,-1.1507,-1.149,-1.1485,-1.1486,-1.148,-1.1468,-1.1552,-1.1552,-1.1552,-1.1344,-1.1347,-1.1388,-1.1405,-1.1433,-1.1458,-1.1506,-1.1541,-1.1558,-1.1556,-1.1524,-1.152,-1.1493,-1.1484,-1.1481,-1.1471,-1.1448,0,0]},{"header":{"parameterUnit":"m.s-1","parameterCategory":1,"la1":30.2992,"la2":30.254,"lo1":-89.0895,"lo2":-89.0443,"dy":0.0025,"dx":0.0025,"nx":19,"ny":19,"refTime":"2026-05-15T03:00:00:Z","depth":0,"parameterNumber":3,"parameterNumberName":"V-component_of_WINDS"},"data":[0,0,0,3.5414,3.5416,3.5504,3.5504,3.5614,3.5615,0,0,0,0,0,0,0,0,0,0,0,3.539,3.5391,3.5414,3.5416,3.5504,3.5504,3.5614,3.5615,0,0,0,0,0,0,0,0,0,0,0,3.5389,3.539,3.5392,3.5417,3.5504,3.5504,3.5614,3.5548,0,0,0,0,0,0,0,0,0,0,3.5463,3.5443,3.539,3.5392,3.5417,3.5503,3.5504,3.5545,3.5552,3.5575,0,3.5598,0,3.5608,3.5623,3.5623,0,0,0,3.5414,3.5437,3.5459,3.5392,3.5418,3.5503,3.5464,3.5549,3.5557,3.5584,3.5599,3.5603,3.561,3.5623,3.5624,3.5764,3.5765,0,0,3.541,3.5406,3.5453,3.5464,3.5454,3.5461,3.5466,3.5554,3.5569,3.5599,3.5606,3.5612,3.5624,3.5625,3.5763,3.5764,0,0,0,3.5397,3.5403,3.5423,3.546,3.5476,3.5463,3.547,3.5565,3.5572,3.5607,3.5613,3.5625,3.5626,3.5762,3.5764,3.5795,0,0,0,3.5394,3.5395,3.5421,3.5419,3.5474,3.5522,3.5479,3.5566,3.5576,3.5613,3.5625,3.5627,3.5762,3.5763,3.5792,3.5809,0,0,0,3.5384,3.5394,3.5408,3.5419,3.5457,3.5521,3.5533,3.5568,3.558,3.5623,3.5627,3.5761,3.5763,3.579,3.5806,3.5843,0,0,0,3.5371,3.5435,3.5408,3.5482,3.5456,3.5541,3.5532,3.5595,3.5637,3.5625,3.5762,3.5763,3.5789,3.5803,3.584,3.5871,3.5885,0,0,3.545,3.5445,3.5489,3.5467,3.5555,3.5528,3.562,3.5661,3.5668,3.5731,3.5734,3.5793,3.5805,3.5842,3.5967,3.5977,0,0,0,3.5512,3.5543,3.5567,3.5607,3.564,3.5669,3.5696,3.5711,3.5764,3.5701,3.5818,3.5826,3.5847,3.5862,3.5871,3.5888,3.5771,3.5771,3.5771,3.5617,3.5623,3.5694,3.571,3.5748,3.5775,3.5805,3.5828,3.5824,3.5851,3.5869,3.5944,3.5962,3.5968,3.5986,3.5889,3.5889,3.5889,3.5889,3.5731,3.5774,3.5765,3.5831,3.5835,3.589,3.5917,3.5911,3.596,3.5932,3.5951,3.5917,3.598,3.5995,3.5891,3.5891,3.5891,3.589,3.589,3.5798,3.5819,3.5837,3.5892,3.5934,3.5947,3.5994,3.5997,3.6,3.602,3.6036,3.6036,3.6033,3.6028,3.6028,3.6029,3.6029,3.6029,3.6029,3.5859,3.5878,3.5918,3.5957,3.5981,3.6013,3.6039,3.6062,3.6088,3.6086,3.6086,3.6076,3.5987,3.5962,3.6033,3.6032,3.6032,3.6031,3.6031,3.5967,3.5943,3.6005,3.6029,3.6073,3.6112,3.6116,3.6162,3.6181,3.6203,3.619,3.6124,3.6118,3.6111,3.6091,3.6191,3.6191,3.6191,3.6191,3.6021,3.6019,3.6081,3.6119,3.6156,3.6165,3.6231,3.625,3.6267,3.6278,3.6265,3.6239,3.6232,3.623,3.622,3.6201,3.6327,3.6327,3.6327,3.6086,3.6087,3.6144,3.6161,3.6195,3.6223,3.6284,3.6325,3.6339,3.6332,3.6286,3.6281,3.6239,3.6226,3.6216,3.6201,3.6166,0,0]}]]